This demonstration page uses our WeatherBlox Daily Observations layout. Learn more.

Left ArrowRight Arrow

34.74481, -87.66753

Hourly Observations for July 8, 2016

Temp ( °F °C ) Dew Point ( °F °C ) Humidity (%) Winds ( mph kmh ) Pressure ( in mb ) Visibility ( mi km ) Precip ( " mm )
12:53 am 00:53 Clear 76 24.4 71 21.7 85 85 Calm 29.97 1015 10 16 0.00 0.00
1:53 am 01:53 Clear 75 23.9 70 21.1 84 84 ESE 3 6 29.99 1016 10 16 0.00 0.00
2:53 am 02:53 Clear 75 23.9 71 21.7 88 88 Calm 30.00 1016 10 16 0.00 0.00
3:53 am 03:53 Clear 74 23.3 70 21.1 88 88 Calm 30.01 1016 10 16 0.00 0.00
4:53 am 04:53 Clear 77 25 71 21.7 82 82 SSW 5 7 30.02 1017 10 16 0.00 0.00
5:53 am 05:53 Sunny 77 25 71 21.7 82 82 SSW 3 6 30.02 1017 10 16 0.00 0.00
6:53 am 06:53 Sunny 82 27.8 72 22.2 72 72 WSW 12 19 30.03 1017 10 16 0.00 0.00
7:53 am 07:53 Sunny 85 29.4 73 22.8 68 68 WSW 13 20 30.03 1017 10 16 0.00 0.00
8:53 am 08:53 Sunny 87 30.6 74 23.3 65 65 WSW 16 26 30.01 1016 10 16 0.00 0.00
9:53 am 09:53 Sunny 90 32.2 74 23.3 59 59 W 16 26 30.01 1016 10 16 0.00 0.00
10:53 am 10:53 Sunny 91 32.8 73 22.8 56 56 W 14 22 30.02 1017 10 16 0.00 0.00
11:53 am 11:53 Sunny 95 35 71 21.7 46 46 WSW 21 33 30.02 1017 10 16 0.00 0.00
12:53 pm 12:53 Sunny 96 35.6 71 21.7 44 44 W 20 31 30.01 1016 10 16 0.00 0.00
1:53 pm 13:53 Sunny 97 36.1 70 21.1 42 42 W 14 22 30.00 1016 10 16 0.00 0.00
2:53 pm 14:53 Partly Cloudy 96 35.6 70 21.1 43 43 WNW 16 26 29.99 1016 10 16 0.00 0.00
3:53 pm 15:53 Mostly Sunny 95 35 70 21.1 44 44 W 9 15 29.96 1015 10 16 0.00 0.00
4:53 pm 16:53 Sunny 95 35 70 21.1 44 44 W 10 17 29.95 1014 10 16 0.00 0.00
5:53 pm 17:53 Mostly Sunny 96 35.6 70 21.1 43 43 W 15 24 29.95 1014 10 16 0.00 0.00
6:53 pm 18:53 Sunny 93 33.9 67 19.4 42 42 W 15 24 29.97 1015 10 16 0.00 0.00
7:53 pm 19:53 Sunny 89 31.7 69 20.6 52 52 W 9 15 29.98 1015 10 16 0.00 0.00
8:53 pm 20:53 Clear 86 30 70 21.1 59 59 W 8 13 29.98 1015 10 16 0.00 0.00
9:53 pm 21:53 Clear 85 29.4 71 21.7 63 63 W 6 9 30.01 1016 10 16 0.00 0.00
10:04 pm 22:04 Clear with Nearby Thunderstorms 84 28.9 72 22.2 67 67 NW 5 7 30.00 1016 10 16 0.00 0.00
10:19 pm 22:19 Clear 84 28.9 72 22.2 67 67 WNW 5 7 30.00 1016 10 16 0.00 0.00
10:53 pm 22:53 Mostly Clear 83 28.3 72 22.2 70 70 N 3 6 30.02 1017 10 16 0.00 0.00
11:53 pm 23:53 Mostly Clear 79 26.1 67 19.4 67 67 E 7 11 30.03 1017 10 16 0.00 0.00

Powered by AerisWeather